Regional Weather Roundup
Issued by NWS Pendleton, OR

Home | Current Version | Previous Version | Text Only | Print | Product List | Glossary On
Versions: 1 2 3 4 5 6 7 8 9 10 11 12 13 14 15 16 17 18 19 20 21 22 23 24 25 26 27 28 29 30 31 32 33 34 35 36 37 38 39 40 41 42 43 44 45 46 47 48 49 50
920
ASUS46 KPDT 240325
RWRPDT
PENDLETON REGIONAL WEATHER ROUNDUP
NATIONAL WEATHER SERVICE PENDLETON OREGON
800 PM PDT SAT JUL 23 2016

NOTE: FAIR INDICATES FEW OR NO CLOUDS BELOW 12,000 FEET WITH NO
SIGNIFICANT WEATHER AND/OR OBSTRUCTIONS TO VISIBILITY.

# INDICATES UNOFFICIAL STATION AND DATA

WAZ520-240410-
EAST SLOPES OF WASHINGTON CASCADES

CITY            SKY/WX      TMP DP  RH  WIND    PRES   REMARKS
#CLE ELUM HS    N/A         64  49  58  W7      30.09S
#CLE ELUM 2NW   N/A         62  48  60  S2      N/A
#GLENWOOD       N/A         70  55  59  S5      30.04R
#MANASTASH CYN  N/A         66  46  48  CALM    30.09R
#NELSON 3SW     N/A         60  47  62  CALM    30.26S
#NILE           N/A         67  48  50  W3      29.34R
#RONALD 2NW     N/A         64  N/A N/A W1      30.22S
#TEANAWAY 4NE   N/A         65  53  65  SW2     N/A
#TROUT LAKE 1NE N/A         69  53  57  W2      30.05R
#TROUT LAKE 1E  N/A         69  55  61  CALM    30.07F
$$

WAZ521-240410-
SIMCOE HIGHLANDS

CITY            SKY/WX      TMP DP  RH  WIND    PRES   REMARKS
#CENTERVILLE 1SWN/A         70  52  53  W10     29.98S
#GOLDENDALE 1NE N/A         74  34  23  SW3     N/A
#GOLDENDALE 4W  N/A         74  59  59  W6      30.11R
#GOODNOE HILLS  N/A         75  52  45  NW15    29.96S
#LYLE 6NE       N/A         68  54  61  SW12    30.02R
$$

WAZ026-240410-
KITTITAS VALLEY

CITY            SKY/WX      TMP DP  RH  WIND    PRES   REMARKS
ELLENSBURG AP   CLEAR       70  48  46  NW25G31 30.09R
#ELLENSBURG CWU N/A         70  49  47  NW17    29.98R
#ELLENSBURG 3NE N/A         67  51  56  NW9G24  30.08R
#ELLENSBURG     N/A         71  51  49  W5      N/A
#ELLENSBURG 1E  N/A         70  N/A N/A NW1     N/A
#KITTITAS 4N    N/A         69  50  51  NW13    30.11R
#KITTITAS 3S    N/A         67  50  54  NW6     30.01R
#THORP 6N       N/A         65  50  58  NW13    30.07S
$$

WAZ027-240410-
YAKIMA VALLEY

CITY            SKY/WX      TMP DP  RH  WIND    PRES   REMARKS
SUNNYSIDE AP    CLEAR       76  55  48  SE3     30.02S
YAKIMA AIRPORT  CLEAR       84  45  26  N8      30.04R
YAKIMA-VAGABOND N/A         79  43  28  NE13    30.04R
#DONALD 2NE     N/A         82  19  10  W1      30.02R
#GRANDVIEW      N/A         78  48  35  CALM    30.01S
#MABTON         N/A         79  49  35  E2      30.01F
#NACHES 2SW     N/A         72  46  39  W9      30.08S
#TERRACE HTS    N/A         79  46  31  N1      29.96S
#WEST VALLEY    N/A         78  43  29  E3      29.98R
#W YAKIMA       N/A         77  47  35  NW1     30.01R
#WHITE SWAN 5E  N/A         82  56  41  CALM    29.99S
#WILEY CITY 3W  N/A         77  37  24  CALM    30.02S
$$

WAZ028-240410-
LOWER COLUMBIA BASIN...WASHINGTON

CITY            SKY/WX      TMP DP  RH  WIND    PRES   REMARKS
PASCO           CLEAR       83  43  24  E6      30.02S
PROSSER AWOS    N/A         79  48  34  S6      30.05S
RICHLAND AWOS   CLEAR       82  48  31  E5      30.02S
#BENTON CITY    N/A         79  50  36  CALM    29.91R
#CONNELL 5N     N/A         81  47  30  W1      30.01S
#CONNELL 5NW    N/A         76  54  46  CALM    29.97S
#ELTOPIA 6NW    N/A         78  52  40  CALM    29.01F
#KAHLOTUS       N/A         78  43  29  N3      30.01S
#KENNEWICK 3S   N/A         78  53  42  CALM    30.00S
#PATERSON       N/A         84  46  27  CALM    29.98S
#SAGEMOOR 2W    N/A         77  55  47  CALM    29.86S
#TOUCHET 2S     N/A         79  61  54  CALM    29.98S
#WEST PASCO     N/A         82  51  34  N1      30.01R
$$

WAZ029-240410-
FOOTHILLS OF THE BLUES...WASHINGTON

CITY            SKY/WX      TMP DP  RH  WIND    PRES   REMARKS
WALLA WALLA AP  CLEAR       78  41  27  N6      30.06R
#CLYDE 6NW      N/A         77  46  33  W3      30.00S
#LOWDEN 2SE     N/A         81  51  35  CALM    29.98S
#PLEASANT VIEW 1N/A         78  45  31  CALM    30.04S
#PRESCOTT       N/A         75  50  41  CALM    29.98S
#WHITMAN COLLEGEN/A         79  47  32  N3      30.06R
#WAITSBURG 5S   N/A         76  41  28  W1      30.10S
#WAITSBURG 8N   N/A         68  19  15  N2      30.01S
#WALLA WALLA U  N/A         82  47  29  CALM    30.00S
#WHITMAN MISSIONN/A         83  52  34  CALM    30.01S
$$

WAZ030-240410-
BLUE MOUNTAINS...WASHINGTON

CITY            SKY/WX      TMP DP  RH  WIND    PRES   REMARKS
#DIXIE 5SE      N/A         70  42  36  W3      30.07S
$$

ORZ009-041-WAZ024-240410-
COLUMBIA RIVER GORGE

CITY            SKY/WX      TMP DP  RH  WIND    PRES   REMARKS
HOOD RIVER AP   CLEAR       72  52  49  W3      30.10R
THE DALLES AP   CLEAR       76  51  42  NW10    30.04S
#ARLINGTON AIRPON/A         78  50  38  W8      30.01S
#LYLE           N/A         73  56  55  W21     30.06S
#MARYHILL 2W    N/A         74  53  48  SE2     N/A
#MOSIER 1S      N/A         71  40  32  W6      30.06S
#MURDOCK        N/A         75  54  48  NW18G30 30.00R
#RUFUS DOT      N/A         79  53  41  W21     N/A
#SMITHVILLE     N/A         75  53  46  N15G26  29.99F

$$

ORZ510-240410-
NORTH CENTRAL OREGON

CITY            SKY/WX      TMP DP  RH  WIND    PRES   REMARKS
#ANTELOPE       N/A         73  42  33  N10     29.88R
#CHENOWITH 1W   N/A         68  50  53  W29     N/A
#COW CYN RST AREN/A         74  N/A N/A N10     N/A
#DUFUR 9E       N/A         68  48  49  NW15    30.10F
#GRASS VALLEY 1SN/A         71  41  34  N7      30.05S
#KENT DOT       N/A         72  33  24  N12     N/A
#SHANIKO 5WSW   N/A         72  33  24  N13     N/A
#SHANIKO 4NW    N/A         69  49  49  N12     30.16F
#TYGH VALLEY 2NEN/A         77  39  25  N12     30.01S
#WAPANITIA AIRPON/A         75  40  28  W1      30.03S
#WASCO DOT      N/A         76  48  37  SW3     N/A
#WASCO AIRPORT  N/A         74  44  34  W17     N/A
#WASCO 5NE      N/A         72  51  48  W9      30.01F
$$

ORZ511-240410-
CENTRAL OREGON

CITY            SKY/WX      TMP DP  RH  WIND    PRES   REMARKS
BEND AIRPORT    CLEAR       77  36  23  N8      30.13R
MADRAS AIRPORT  CLEAR       81  41  24  N15     30.12S
PRINEVILLE AP   CLEAR       75  36  24  N8      30.12S
REDMOND AIRPORT CLEAR       80  31  17  N12     30.11R
#ASHWOOD SCHOOL N/A         77  40  26  N8      30.06R
#BEND 1SW       N/A         73  40  30  E2      N/A
#BEND-AWBREY    N/A         76  40  27  CALM    30.14R
#CULVER         N/A         73  45  37  NW7     29.94R
#CULVER 8W      N/A         76  44  32  CALM    30.11R
#LAKE BILLY CHINN/A         74  N/A N/A N12     30.15R
#MADRAS 4S      N/A         76  20  12  NW6     30.17R
#POWELL BUTTE 3EN/A         77  42  29  NW6     N/A
#POWELL BUTTE   N/A         74  41  30  CALM    30.06S
#PRINEVILLE 3N  N/A         72  44  37  N6      30.05S
#WARM SPRINGS   N/A         79  44  29  CALM    30.04R

$$


ORZ509-240410-
EAST SLOPES OF OREGON CASCADES

CITY            SKY/WX      TMP DP  RH  WIND    PRES   REMARKS
SISTERS AWOS    N/A         75  50  41  VRB6    30.10R
#CAMP SHERMAN   N/A         71  47  42  CALM    30.13R
#LA PINE DOT    N/A         74  32  21  NW8     N/A
#LA PINE 4NW    N/A         72  49  44  CALM    30.05S
#LAVA BUTTE DOT N/A         72  33  24  CALM    N/A
#SISTERS AIRPOR N/A         74  57  55  N3      30.17S
#SISTERS ODOT   N/A         76  N/A N/A SW3     N/A
#SISTERS 3N     N/A         72  46  39  CALM    30.11R
#SUNRIVER       N/A         73  44  35  N1      30.04R
#SUTTLE LK DOT  N/A         68  49  51  NE1     N/A
#TUMALO 3W      N/A         74  48  40  NW8     29.89R
#WANOGA BUTTE D N/A         65  42  43  NE5     N/A

$$

ORZ044-240410-
LOWER COLUMBIA BASIN...OREGON

CITY            SKY/WX      TMP DP  RH  WIND    PRES   REMARKS
HERMISTON       CLEAR       82  41  23  SW3     30.02S
#BOARDMAN 8SW   N/A         83  47  28  N2      29.99F
#ECHO 8SW       N/A         83  46  27  CALM    30.03S
#I-84 EX 198 DOTN/A         81  48  32  E2      N/A
$$

ORZ507-240410-
NORTHERN FOOTHILLS OF THE BLUES

CITY            SKY/WX      TMP DP  RH  WIND    PRES   REMARKS
PENDLETON AIRPT CLEAR       79  34  20  N6      30.06S
#ADAMS 3WNW     N/A         78  42  28  N3      30.00S
#ATHENA         N/A         75  45  34  CALM    30.04R
#CAYUSE         N/A         78  37  23  NW5     30.00S
#HELIX SCHOOL   N/A         75  44  33  N5      30.02R
#HELIX 3N       N/A         72  43  35  N7      30.05S
#HELIX 6SW      N/A         77  39  25  CALM    30.06S
#HOLDMAN 5SE    N/A         76  41  28  CALM    30.05S
#HOLDMAN 6E     N/A         78  40  26  CALM    29.83S
#M-F GROVE ELEM N/A         79  41  26  CALM    30.03S
#M-FREEWATER 5SEN/A         79  56  45  CALM    30.05S
#PENDLETON DNTN N/A         77  39  25  CALM    30.07S
#PDT AQUATIC CTRN/A         79  36  21  CALM    29.92S
#PDT SUNRIDGE   N/A         81  39  22  CALM    30.06S
#PENDLETON 7NW  N/A         79  49  35  CALM    32.29S
#PILOT ROCK 1S  N/A         75  39  27  CALM    30.08S
#PILOT ROCK     N/A         83  44  25  CALM    30.10R
#TUTUILLA       N/A         77  41  28  CALM    30.03S
#UMAPINE 2E     N/A         76  58  54  CALM    30.01S
#WESTON SCHOOL  N/A         74  38  27  SE2     29.89R

$$

ORZ508-240410-
SOUTHERN FOOTHILLS OF THE BLUES

CITY            SKY/WX      TMP DP  RH  WIND    PRES   REMARKS
LEXINGTON       CLEAR       77  39  25  NE3     30.10S
#AJAX           N/A         73  49  43  SW2     27.86
#CONDON 5W      N/A         70  34  26  N5      30.11S
#HEPPNER EOC    N/A         77  38  24  CALM    29.96S
#HEPPNER 4NE    N/A         73  41  31  CALM    30.03S
#LEXINGTON 2SE  N/A         82  44  26  CALM    30.03S
#RUGGS 5NE      N/A         77  33  20  CALM    30.33S
#RUGGS 2SW      N/A         75  29  18  NW2     30.05S

$$

ORZ502-503-240410-
BLUE MOUNTAINS

CITY            SKY/WX      TMP DP  RH  WIND    PRES   REMARKS
MEACHAM         CLEAR       66  38  36  CALM    30.18R
#BATTLE MTN DOT N/A         65  36  34  N2      N/A
#CUTSFORTH PARK N/A         59  46  62  CALM    29.96S
#GREENHORN 9SW  N/A         75  33  21  W3      30.11S
#HARDMAN 10S    N/A         61  34  36  N5      30.22S
#HEPPNER 15SE   N/A         64  38  38  CALM    30.10F
#LADD CYN SMT   N/A         72  35  26  NW8     N/A
#LADD CREEK ODOTN/A         69  41  36  CALM    N/A
#N POWDER DOT   N/A         72  44  37  N10     N/A
#PIKES PEAK     N/A         69  41  36  CALM    27.99S
#TOLLGATE       N/A         58  42  55  CALM    30.06S
#TROY SCHOOL    N/A         80  52  38  CALM    29.82R
#UKIAH          N/A         71  40  32  N3      29.97R
#WESTON 4E      N/A         68  45  44  CALM    30.01S
$$

ORZ505-240410-
JOHN DAY BASIN

CITY            SKY/WX      TMP DP  RH  WIND    PRES   REMARKS
JOHN DAY        CLEAR       75  32  21  CALM    30.14R
#DAYVILLE SCHOOLN/A         80  33  18  CALM    30.04R
#MITCHELL       N/A         77  43  30  CALM    30.26S
#MITCHELL 8NW   N/A         76  33  21  CALM    30.21S
#MONUMENT HS    N/A         79  38  23  N8      29.96S
#MT. VERNON 5SE N/A         73  33  23  CALM    30.10S
#SPRAY SCHOOL   N/A         80  N/A N/A CALM    N/A
$$

ORZ506-240410-
OCHOCO AND JOHN DAY HIGHLANDS

CITY            SKY/WX      TMP DP  RH  WIND    PRES   REMARKS
#BUCK CREEK DOT N/A         80  30  16  NW9     N/A
#HORSE RIDGE DO N/A         75  34  22  NW10    N/A
#PAULINA SCHOOL N/A         78  33  19  NW6     N/A
#PINE MTN OBS   N/A         64  34  33  NW3     N/A
#PRAIRIE CITY   N/A         75  36  24  CALM    30.26S
#SENECA         N/A         72  N/A N/A N2      N/A
#SENECA 9NW     N/A         68  31  25  CALM    29.99R
$$

ORZ049-240410-
GRANDE RONDE VALLEY

CITY            SKY/WX      TMP DP  RH  WIND    PRES   REMARKS
LA GRANDE       CLEAR       72  37  28  N6      30.11R
#COVE           N/A         72  44  37  NW2     30.14R
#COVE SCHOOL    N/A         73  41  31  CALM    30.12R
#COVE 6NW       N/A         71  42  35  N6      29.99R
#ELGIN 3N       N/A         74  34  23  CALM    30.08S
#ELGIN 1E       N/A         77  40  26  CALM    N/A
#ISLAND CITY 4N N/A         68  55  63  CALM    30.17S
#LADD CYN DOT   N/A         74  43  33  CALM    N/A
#UNION 1S       N/A         73  44  35  CALM    29.91R
$$

ORZ050-240410-
WALLOWA COUNTY

CITY            SKY/WX      TMP DP  RH  WIND    PRES   REMARKS
JOSEPH AIRPORT  CLEAR       68  34  28  CALM    N/A
#ENTERPRISE AP  N/A         49  29  46  CALM    30.08S
#ENTERPRISE HS  N/A         72  40  31  N2      30.14R
#IMNAHA SCHOOL  N/A         77  46  33  CALM    30.03R
#JOSEPH 3N      N/A         69  36  30  W3      30.16S
#JOSEPH 3W      N/A         N/A N/A N/A CALM    30.03S
#LOSTINE        N/A         66  43  43  CALM    29.83R
#LOSTINE 3SE    N/A         68  38  33  CALM    30.11R
#MT HOWARD 8000 N/A         52  34  50  NW3     30.38R
#PROMISE 1S     N/A         70  41  35  CALM    30.11S
#WALLOWA SCHOOL N/A         74  41  30  CALM    30.07R



$$



USA.gov is the U.S. government's official web portal to all federal, state and local government web resources and services.